Location: Newark
(13.6797°N, 8.5297°E)
Time: 20:53:05
(UTC+00:00)

A-11 Canister half - Pass Details

Date: 21 January 2020
Orbit: 1517 x 1683 km, 47.2° (Epoch: 19 February)

Event Time Altitude Azimuth Distance (km) Brightness Sun altitude
Rises 19:35:10 0° 184° (S) 4,852 11.8 -32.0°
Reaches altitude 10° 19:39:51 10° 166° (SSE) 3,835 11.1 -33.1°
Enters shadow 19:42:44 15° 149° (SSE) 3,411 10.6 -33.8°
Maximum altitude 19:45:41 17° 128° (SE) 3,236 - -34.5°
Drops below altitude 10° 19:51:23 10° 90° (E) 3,756 - -35.8°
Sets 19:55:49 0° 72° (ENE) 4,711 - -36.9°
